Location: Bernadets
(43.3537°N, 0.3167°E)
Time: 07:33:54
(UTC+00:00)

Cosmos 1300 - Pass Details

Date: 24 October 2021
Orbit: 509 x 512 km, 82.5° (Epoch: 02 December)

Event Time Altitude Azimuth Distance (km) Brightness Sun altitude
Rises 17:51:39 0° 179° (S) 2,611 6.4 -9.8°
Reaches altitude 10° 17:53:46 10° 176° (S) 1,730 5.4 -10.2°
Maximum altitude 17:57:31 63° 95° (E) 576 2.6 -10.9°
Drops below altitude 10° 18:01:18 10° 15° (NNE) 1,744 5.2 -11.5°
Sets 18:03:27 0° 12° (NNE) 2,634 6.1 -11.9°
